User: anonymous   Login
Location: Unspecified
(0.0000°N, 0.0000°E)
Time: 00:56:34
(UTC+00:00)
Language:

Orbcomm A3 (FM07) - Orbit

View from above orbital plane
View from above orbital plane
View from above satellite
View from above satellite

Ground track
Ground track

The orbit data is extracted from the following two-line orbital elements,

1 25119U 97084H   21023.60706969  .00000071  00000-0  68624-4 0  9995
2 25119  45.0163  99.7671 0001649  81.2177 278.8858 14.39143438209900
Epoch (UTC): 23 January 2021 14:34:10
Eccentricity: 0.0001649
inclination: 45.0163°
perigee height: 760 km
apogee height: 762 km
right ascension of ascending node: 99.7671°
argument of perigee: 81.2177°
revolutions per day: 14.39143438
mean anomaly at epoch: 278.8858°
orbit number at epoch: 20990

The dashed part of the orbit path shows where the satellite is in the earth's shadow,  

DLR